This is the latest recevied weather packets stored in our database for station/object K2RMB. If no packets are shown the sender has not sent any weather packets the latest 10 day(s).
| Time | Temp. | Humidity | Pressure | Rain* | Wind** | Luminosity | Snow |
|---|---|---|---|---|---|---|---|
| 1777137069 | 10.56° C | 51% | 1017.1 hPa | 0 mm | - | 583 W/m² | - |
| 1777136766 | 11.11° C | 49% | 1017.1 hPa | 0 mm | - | 623 W/m² | - |
| 1777136463 | 10.56° C | 51% | 1017.4 hPa | 0 mm | - | 451 W/m² | - |
| 1777136161 | 10.56° C | 51% | 1017.1 hPa | 0 mm | - | 385 W/m² | - |
| 1777135857 | 10° C | 50% | 1017.4 hPa | 0 mm | - | 319 W/m² | - |
| 1777135553 | 10° C | 51% | 1017.4 hPa | 0 mm | - | 256 W/m² | - |
| 1777135249 | 10° C | 54% | 1017.4 hPa | 0 mm | - | 256 W/m² | - |
| 1777134946 | 10° C | 54% | 1017.1 hPa | 0 mm | - | 253 W/m² | - |
| 1777134644 | 10.56° C | 54% | 1017.4 hPa | 0 mm | - | 267 W/m² | - |
| 1777134339 | 10.56° C | 53% | 1017.4 hPa | 0 mm | - | 317 W/m² | - |
| 1777134036 | 10° C | 50% | 1017.4 hPa | 0 mm | - | 311 W/m² | - |
| 1777133732 | 9.44° C | 52% | 1017.4 hPa | 0 mm | - | 316 W/m² | - |
| 1777133433 | 10.56° C | 49% | 1017.8 hPa | 0 mm | - | 307 W/m² | - |
| 1777133132 | 10.56° C | 49% | 1017.8 hPa | 0 mm | - | 304 W/m² | - |
| 1777132828 | 10.56° C | 49% | 1017.8 hPa | 0 mm | - | 412 W/m² | - |
| 1777132525 | 10° C | 50% | 1018.1 hPa | 0 mm | - | 399 W/m² | - |
| 1777132222 | 10.56° C | 50% | 1017.8 hPa | 0 mm | - | 397 W/m² | - |
| 1777131917 | 10° C | 51% | 1017.8 hPa | 0 mm | - | 407 W/m² | - |
| 1777131616 | 10° C | 50% | 1017.8 hPa | 0 mm | - | 447 W/m² | - |
| 1777131315 | 9.44° C | 53% | 1018.1 hPa | 0 mm | - | 434 W/m² | - |
| 1777131010 | 9.44° C | 52% | 1017.8 hPa | 0 mm | - | 404 W/m² | - |
| 1777130706 | 9.44° C | 55% | 1017.4 hPa | 0 mm | - | 335 W/m² | - |
| 1777130402 | 9.44° C | 53% | 1017.8 hPa | 0 mm | - | 346 W/m² | - |
| 1777130098 | 9.44° C | 53% | 1017.8 hPa | 0 mm | - | 348 W/m² | - |
| 1777129794 | 8.89° C | 52% | 1018.1 hPa | 0 mm | - | 441 W/m² | - |
* Rain latest hour (hover to see other rain measurements)
** Current wind speed in m/s (hover to see current wind gust speed)